NKS541 KBWI-KBOS

Flight info

Callsign NKS541
Flight time 1h 7m
Altitude 37000
Route DUKPN1 BROSS Q419 JFK ROBUC3
Aircraft A320/M-SDE3FGHIRWY/LB1

Departure

Time 2026-05-06 01:49
Airport Baltimore/Washington International Thurgood Marshall Airport (KBWI)

Arrival

Time 2026-05-06 02:57
Airport Boston Logan International Airport (KBOS)
Time Latitude Longitude Altitude Speed Heading
2026-05-06 01:06 39.17916 -76.66553 156 ft 0 kts 53°
2026-05-06 01:27 39.17905 -76.66573 156 ft 4 kts 62°
2026-05-06 01:27 39.17895 -76.66605 156 ft 4 kts 83°
2026-05-06 01:27 39.17897 -76.66638 156 ft 4 kts 125°
2026-05-06 01:27 39.17903 -76.66647 156 ft 0 kts 143°
2026-05-06 01:32 39.17902 -76.66647 156 ft 0 kts 143°
2026-05-06 01:32 39.17901 -76.66646 156 ft 0 kts 143°
2026-05-06 01:33 39.17900 -76.66644 156 ft 0 kts 139°
2026-05-06 01:33 39.17895 -76.66639 156 ft 1 kts 143°
2026-05-06 01:34 39.17885 -76.66629 156 ft 2 kts 143°
2026-05-06 01:34 39.17871 -76.66617 156 ft 3 kts 144°
2026-05-06 01:34 39.17858 -76.66604 156 ft 1 kts 144°
2026-05-06 01:34 39.17850 -76.66598 156 ft 2 kts 144°
2026-05-06 01:35 39.17838 -76.66586 156 ft 3 kts 144°
2026-05-06 01:35 39.17821 -76.66570 156 ft 3 kts 144°
2026-05-06 01:35 39.17816 -76.66566 156 ft 0 kts 144°
2026-05-06 01:35 39.17812 -76.66562 156 ft 2 kts 144°
2026-05-06 01:36 39.17799 -76.66551 156 ft 2 kts 144°
2026-05-06 01:36 39.17779 -76.66532 156 ft 6 kts 145°
2026-05-06 01:36 39.17752 -76.66488 156 ft 7 kts 122°
2026-05-06 01:36 39.17725 -76.66427 156 ft 8 kts 110°
2026-05-06 01:37 39.17755 -76.66367 156 ft 9 kts 35°
2026-05-06 01:37 39.17774 -76.66294 155 ft 10 kts 111°
2026-05-06 01:37 39.17742 -76.66211 154 ft 11 kts 117°
2026-05-06 01:37 39.17701 -76.66108 151 ft 14 kts 114°
2026-05-06 01:38 39.17654 -76.65981 147 ft 17 kts 117°
2026-05-06 01:38 39.17611 -76.65871 146 ft 11 kts 116°
2026-05-06 01:38 39.17583 -76.65797 145 ft 5 kts 116°
2026-05-06 01:38 39.17564 -76.65748 144 ft 7 kts 116°
2026-05-06 01:39 39.17541 -76.65685 143 ft 10 kts 114°
2026-05-06 01:39 39.17520 -76.65592 141 ft 11 kts 101°
2026-05-06 01:39 39.17486 -76.65551 141 ft 0 kts 187°
2026-05-06 01:47 39.17470 -76.65553 142 ft 3 kts 181°
2026-05-06 01:47 39.17426 -76.65543 142 ft 9 kts 165°
2026-05-06 01:48 39.17355 -76.65523 141 ft 12 kts 180°
2026-05-06 01:48 39.17281 -76.65562 140 ft 14 kts 253°
2026-05-06 01:48 39.17296 -76.65854 144 ft 63 kts 274°
2026-05-06 01:48 39.17343 -76.66685 152 ft 119 kts 274°
2026-05-06 01:49 39.17407 -76.67951 171 ft 161 kts 273°
2026-05-06 01:49 39.17500 -76.69416 684 ft 165 kts 272°
2026-05-06 01:49 39.17574 -76.70601 1212 ft 163 kts 266°
2026-05-06 01:49 39.17664 -76.72046 1913 ft 162 kts 265°
2026-05-06 01:50 39.17616 -76.73540 2325 ft 173 kts 244°
2026-05-06 01:50 39.16830 -76.74753 2662 ft 190 kts 211°
2026-05-06 01:50 39.15464 -76.75014 3175 ft 217 kts 172°
2026-05-06 01:50 39.14071 -76.74068 3968 ft 233 kts 154°
2026-05-06 01:51 39.12747 -76.72799 4774 ft 241 kts 150°
2026-05-06 01:51 39.11430 -76.71433 5576 ft 245 kts 149°
2026-05-06 01:51 39.10171 -76.70111 6370 ft 248 kts 148°
2026-05-06 01:51 39.08960 -76.68439 6890 ft 266 kts 129°
2026-05-06 01:52 39.08284 -76.66195 7048 ft 288 kts 104°
2026-05-06 01:52 39.08292 -76.63515 7608 ft 306 kts 89°
2026-05-06 01:52 39.08432 -76.60766 8356 ft 310 kts 90°
2026-05-06 01:52 39.08544 -76.57992 9225 ft 311 kts 89°
2026-05-06 01:53 39.08643 -76.55193 10034 ft 314 kts 89°
2026-05-06 01:53 39.08738 -76.52331 10461 ft 331 kts 89°
2026-05-06 01:53 39.08840 -76.49271 10659 ft 353 kts 89°
2026-05-06 01:53 39.09053 -76.46057 11127 ft 365 kts 81°
2026-05-06 01:54 39.09746 -76.42883 11750 ft 371 kts 71°
2026-05-06 01:54 39.10609 -76.39735 12438 ft 375 kts 71°
2026-05-06 01:54 39.11478 -76.36546 13102 ft 379 kts 71°
2026-05-06 01:54 39.12351 -76.33319 13727 ft 384 kts 71°
2026-05-06 01:55 39.13227 -76.30058 13960 ft 386 kts 71°
2026-05-06 01:55 39.14106 -76.26785 14035 ft 387 kts 71°
2026-05-06 01:55 39.14961 -76.23495 14039 ft 387 kts 75°
2026-05-06 01:55 39.15479 -76.20108 14038 ft 386 kts 83°
2026-05-06 01:56 39.15863 -76.16691 14040 ft 385 kts 83°
2026-05-06 01:56 39.16248 -76.13274 14036 ft 385 kts 83°
2026-05-06 01:56 39.16635 -76.09864 14035 ft 385 kts 83°
2026-05-06 01:56 39.17025 -76.06454 14035 ft 385 kts 83°
2026-05-06 01:57 39.17414 -76.03048 14034 ft 384 kts 83°
2026-05-06 01:57 39.17803 -75.99635 14032 ft 384 kts 83°
2026-05-06 01:57 39.18193 -75.96234 14032 ft 384 kts 83°
2026-05-06 01:57 39.18690 -75.92857 14025 ft 385 kts 75°
2026-05-06 01:58 39.19632 -75.89630 14031 ft 386 kts 64°
2026-05-06 01:58 39.21017 -75.86673 14028 ft 385 kts 53°
2026-05-06 01:58 39.22791 -75.84097 14026 ft 384 kts 41°
2026-05-06 01:58 39.24822 -75.81853 14029 ft 384 kts 39°
2026-05-06 01:59 39.26874 -75.79618 14417 ft 388 kts 39°
2026-05-06 01:59 39.28941 -75.77358 15043 ft 391 kts 39°
2026-05-06 01:59 39.31023 -75.75073 15600 ft 395 kts 39°
2026-05-06 01:59 39.33126 -75.72765 16158 ft 399 kts 39°
2026-05-06 02:00 39.35247 -75.70442 16700 ft 403 kts 39°
2026-05-06 02:00 39.37396 -75.68090 17249 ft 407 kts 39°
2026-05-06 02:00 39.39565 -75.65712 17802 ft 410 kts 39°
2026-05-06 02:00 39.41751 -75.63309 18341 ft 414 kts 39°
2026-05-06 02:01 39.43955 -75.60884 18824 ft 418 kts 39°
2026-05-06 02:01 39.46181 -75.58434 19328 ft 422 kts 39°
2026-05-06 02:01 39.48265 -75.56138 19798 ft 425 kts 39°
2026-05-06 02:01 39.50493 -75.53683 20282 ft 428 kts 39°
2026-05-06 02:02 39.52772 -75.51169 20755 ft 432 kts 39°
2026-05-06 02:02 39.55066 -75.48635 21219 ft 435 kts 39°
2026-05-06 02:02 39.57377 -75.46077 21682 ft 439 kts 39°
2026-05-06 02:02 39.59734 -75.43466 22131 ft 442 kts 39°
2026-05-06 02:03 39.62081 -75.40869 22574 ft 445 kts 38°
2026-05-06 02:03 39.64446 -75.38252 23014 ft 449 kts 38°
2026-05-06 02:03 39.66792 -75.35650 23441 ft 452 kts 39°
2026-05-06 02:03 39.69223 -75.32946 23823 ft 455 kts 38°
2026-05-06 02:04 39.71629 -75.30263 24215 ft 457 kts 38°
2026-05-06 02:04 39.74050 -75.27566 24614 ft 459 kts 38°
2026-05-06 02:04 39.76476 -75.24863 25021 ft 460 kts 38°
2026-05-06 02:04 39.78889 -75.22114 25432 ft 463 kts 42°
2026-05-06 02:05 39.81078 -75.19030 25829 ft 466 kts 47°
2026-05-06 02:05 39.83217 -75.15859 26222 ft 467 kts 47°
2026-05-06 02:05 39.85364 -75.12665 26611 ft 469 kts 47°
2026-05-06 02:05 39.87514 -75.09461 26982 ft 471 kts 47°
2026-05-06 02:06 39.89675 -75.06239 27366 ft 473 kts 46°
2026-05-06 02:06 39.91813 -75.03053 27750 ft 474 kts 46°
2026-05-06 02:06 39.93980 -74.99817 28146 ft 476 kts 46°
2026-05-06 02:06 39.96164 -74.96547 28536 ft 478 kts 47°
2026-05-06 02:07 39.98143 -74.93043 28910 ft 482 kts 54°
2026-05-06 02:07 39.99997 -74.89400 29283 ft 484 kts 54°
2026-05-06 02:07 40.01864 -74.85734 29670 ft 485 kts 54°
2026-05-06 02:07 40.03731 -74.82074 30120 ft 484 kts 54°
2026-05-06 02:08 40.05595 -74.78424 30576 ft 482 kts 54°
2026-05-06 02:08 40.07449 -74.74786 31018 ft 481 kts 53°
2026-05-06 02:08 40.09299 -74.71151 31457 ft 479 kts 53°
2026-05-06 02:08 40.11139 -74.67534 31888 ft 478 kts 53°
2026-05-06 02:09 40.12975 -74.63915 32323 ft 477 kts 53°
2026-05-06 02:09 40.14801 -74.60304 32761 ft 476 kts 53°
2026-05-06 02:09 40.16620 -74.56691 33198 ft 475 kts 53°
2026-05-06 02:09 40.18433 -74.53088 33628 ft 474 kts 52°
2026-05-06 02:10 40.20439 -74.49708 34028 ft 468 kts 43°
2026-05-06 02:10 40.22766 -74.46789 34387 ft 461 kts 34°
2026-05-06 02:10 40.25253 -74.44155 34757 ft 459 kts 33°
2026-05-06 02:10 40.27731 -74.41526 35124 ft 457 kts 33°
2026-05-06 02:11 40.30196 -74.38901 35484 ft 456 kts 33°
2026-05-06 02:11 40.32647 -74.36282 35837 ft 454 kts 33°
2026-05-06 02:11 40.35087 -74.33667 36182 ft 453 kts 33°
2026-05-06 02:11 40.37523 -74.31047 36509 ft 451 kts 33°
2026-05-06 02:12 40.39934 -74.28450 36622 ft 448 kts 33°
2026-05-06 02:12 40.42357 -74.25847 36367 ft 451 kts 33°
2026-05-06 02:12 40.44785 -74.23235 35925 ft 451 kts 33°
2026-05-06 02:12 40.47213 -74.20616 35524 ft 452 kts 33°
2026-05-06 02:13 40.49645 -74.17993 35126 ft 453 kts 34°
2026-05-06 02:13 40.52028 -74.15266 34744 ft 458 kts 40°
2026-05-06 02:13 40.54107 -74.12046 34356 ft 466 kts 51°
2026-05-06 02:13 40.55374 -74.09403 34080 ft 471 kts 59°
2026-05-06 02:14 40.56707 -74.05457 33691 ft 476 kts 69°
2026-05-06 02:14 40.57696 -74.01296 33258 ft 478 kts 71°
2026-05-06 02:14 40.58673 -73.97107 32843 ft 478 kts 71°
2026-05-06 02:14 40.59647 -73.92922 32415 ft 479 kts 72°
2026-05-06 02:15 40.60620 -73.88725 32021 ft 480 kts 72°
2026-05-06 02:15 40.61589 -73.84515 31602 ft 481 kts 72°
2026-05-06 02:15 40.62686 -73.80348 31202 ft 481 kts 65°
2026-05-06 02:15 40.64221 -73.76466 30805 ft 480 kts 56°
2026-05-06 02:16 40.66200 -73.72911 30412 ft 480 kts 47°
2026-05-06 02:16 40.68438 -73.69652 30025 ft 481 kts 46°
2026-05-06 02:16 40.70685 -73.66386 29572 ft 481 kts 46°
2026-05-06 02:16 40.72926 -73.63107 29125 ft 479 kts 46°
2026-05-06 02:17 40.75136 -73.59855 28692 ft 476 kts 46°
2026-05-06 02:17 40.77338 -73.56607 28272 ft 474 kts 46°
2026-05-06 02:17 40.79530 -73.53373 27849 ft 471 kts 46°
2026-05-06 02:17 40.81709 -73.50164 27445 ft 469 kts 46°
2026-05-06 02:18 40.83886 -73.46966 27052 ft 466 kts 46°
2026-05-06 02:18 40.86048 -73.43793 26918 ft 464 kts 46°
2026-05-06 02:18 40.88213 -73.40610 26954 ft 465 kts 46°
2026-05-06 02:18 40.90368 -73.37429 26831 ft 465 kts 46°
2026-05-06 02:19 40.92516 -73.34251 26564 ft 459 kts 46°
2026-05-06 02:19 40.94618 -73.31136 26292 ft 449 kts 46°
2026-05-06 02:19 40.96675 -73.28083 26017 ft 440 kts 46°
2026-05-06 02:19 40.98692 -73.25082 25725 ft 433 kts 46°
2026-05-06 02:20 41.02664 -73.19184 25202 ft 427 kts 46°
2026-05-06 02:20 41.04634 -73.16258 24943 ft 425 kts 46°
2026-05-06 02:20 41.06599 -73.13337 24687 ft 424 kts 47°
2026-05-06 02:21 41.08557 -73.10420 24419 ft 423 kts 47°
2026-05-06 02:21 41.10505 -73.07511 24167 ft 421 kts 47°
2026-05-06 02:21 41.12447 -73.04608 23919 ft 420 kts 47°
2026-05-06 02:21 41.14381 -73.01716 23670 ft 418 kts 47°
2026-05-06 02:22 41.16309 -72.98833 23405 ft 417 kts 47°
2026-05-06 02:22 41.18230 -72.95960 23122 ft 415 kts 47°
2026-05-06 02:22 41.20121 -72.93085 22944 ft 413 kts 50°
2026-05-06 02:22 41.21727 -72.89979 22928 ft 414 kts 60°
2026-05-06 02:23 41.23053 -72.86595 22828 ft 413 kts 63°
2026-05-06 02:23 41.24349 -72.83188 22626 ft 412 kts 63°
2026-05-06 02:23 41.25643 -72.79799 22372 ft 410 kts 63°
2026-05-06 02:23 41.26933 -72.76425 22109 ft 408 kts 63°
2026-05-06 02:24 41.28216 -72.73066 21845 ft 407 kts 63°
2026-05-06 02:24 41.29496 -72.69720 21584 ft 405 kts 63°
2026-05-06 02:24 41.30770 -72.66384 21346 ft 404 kts 63°
2026-05-06 02:24 41.32038 -72.63057 21099 ft 402 kts 63°
2026-05-06 02:25 41.33298 -72.59743 20897 ft 400 kts 63°
2026-05-06 02:25 41.34554 -72.56433 20970 ft 401 kts 63°
2026-05-06 02:25 41.35811 -72.53117 20973 ft 401 kts 63°
2026-05-06 02:25 41.37065 -72.49805 20972 ft 401 kts 63°
2026-05-06 02:26 41.38320 -72.46485 20971 ft 401 kts 63°
2026-05-06 02:26 41.39579 -72.43161 20971 ft 401 kts 63°
2026-05-06 02:26 41.40835 -72.39844 20972 ft 401 kts 63°
2026-05-06 02:26 41.42088 -72.36527 20967 ft 401 kts 63°
2026-05-06 02:27 41.43341 -72.33201 20963 ft 401 kts 63°
2026-05-06 02:27 41.44586 -72.29878 20958 ft 401 kts 63°
2026-05-06 02:27 41.45830 -72.26554 20954 ft 401 kts 63°
2026-05-06 02:27 41.47075 -72.23234 20963 ft 401 kts 63°
2026-05-06 02:28 41.48321 -72.19913 20934 ft 401 kts 63°
2026-05-06 02:28 41.49558 -72.16584 20682 ft 400 kts 63°
2026-05-06 02:28 41.50780 -72.13262 20437 ft 398 kts 63°
2026-05-06 02:28 41.51991 -72.09943 20189 ft 397 kts 64°
2026-05-06 02:29 41.53192 -72.06633 19940 ft 396 kts 64°
2026-05-06 02:29 41.54389 -72.03333 19699 ft 395 kts 64°
2026-05-06 02:29 41.55583 -72.00039 19457 ft 394 kts 64°
2026-05-06 02:29 41.56705 -71.96713 19205 ft 393 kts 66°
2026-05-06 02:30 41.57740 -71.93342 18972 ft 392 kts 68°
2026-05-06 02:30 41.58722 -71.89954 18766 ft 391 kts 69°
2026-05-06 02:30 41.59688 -71.86560 18524 ft 390 kts 69°
2026-05-06 02:30 41.60627 -71.83275 18296 ft 389 kts 69°
2026-05-06 02:31 41.61565 -71.80033 18048 ft 387 kts 69°
2026-05-06 02:31 41.62544 -71.76687 17762 ft 385 kts 69°
2026-05-06 02:31 41.63524 -71.73365 17497 ft 383 kts 69°
2026-05-06 02:31 41.64500 -71.70065 17242 ft 381 kts 69°
2026-05-06 02:32 41.65457 -71.66823 16988 ft 379 kts 69°
2026-05-06 02:32 41.66421 -71.63554 16727 ft 377 kts 69°
2026-05-06 02:32 41.67376 -71.60299 16464 ft 375 kts 69°
2026-05-06 02:32 41.68316 -71.57085 16221 ft 368 kts 69°
2026-05-06 02:33 41.69244 -71.53919 15978 ft 364 kts 69°
2026-05-06 02:33 41.69865 -71.51796 15795 ft 362 kts 69°
2026-05-06 02:33 41.71982 -71.44545 15224 ft 358 kts 68°
2026-05-06 02:34 41.73066 -71.41560 14981 ft 356 kts 59°
2026-05-06 02:34 41.74301 -71.38689 14735 ft 355 kts 59°
2026-05-06 02:34 41.75529 -71.35829 14499 ft 354 kts 59°
2026-05-06 02:34 41.76749 -71.32977 14259 ft 352 kts 60°
2026-05-06 02:35 41.77963 -71.30131 14021 ft 351 kts 60°
2026-05-06 02:35 41.79172 -71.27299 13787 ft 350 kts 60°
2026-05-06 02:35 41.80376 -71.24476 13466 ft 348 kts 60°
2026-05-06 02:35 41.81577 -71.21651 13004 ft 349 kts 60°
2026-05-06 02:36 41.82780 -71.18814 12568 ft 349 kts 60°
2026-05-06 02:36 41.83970 -71.16007 12311 ft 343 kts 60°
2026-05-06 02:36 41.85132 -71.13265 12077 ft 334 kts 60°
2026-05-06 02:36 41.86276 -71.10585 11915 ft 328 kts 60°
2026-05-06 02:37 41.87421 -71.07932 11824 ft 329 kts 59°
2026-05-06 02:37 41.88571 -71.05284 11675 ft 328 kts 60°
2026-05-06 02:37 41.89720 -71.02640 11521 ft 328 kts 59°
2026-05-06 02:37 41.90866 -70.99992 11384 ft 327 kts 60°
2026-05-06 02:38 41.92008 -70.97352 11232 ft 327 kts 60°
2026-05-06 02:38 41.93144 -70.94718 11089 ft 326 kts 60°
2026-05-06 02:38 41.94279 -70.92085 10942 ft 325 kts 60°
2026-05-06 02:38 41.95410 -70.89456 10799 ft 325 kts 60°
2026-05-06 02:39 41.96539 -70.86827 10657 ft 324 kts 60°
2026-05-06 02:39 41.97661 -70.84204 10519 ft 324 kts 60°
2026-05-06 02:39 41.98782 -70.81580 10375 ft 323 kts 60°
2026-05-06 02:39 41.99903 -70.78964 10224 ft 323 kts 60°
2026-05-06 02:40 42.01080 -70.76401 10082 ft 322 kts 53°
2026-05-06 02:40 42.02520 -70.74093 9703 ft 323 kts 46°
2026-05-06 02:40 42.04020 -70.71854 9408 ft 321 kts 47°
2026-05-06 02:40 42.05486 -70.69659 9115 ft 318 kts 46°
2026-05-06 02:41 42.06983 -70.67419 8809 ft 317 kts 46°
2026-05-06 02:41 42.08452 -70.65220 8514 ft 316 kts 46°
2026-05-06 02:41 42.09968 -70.63165 8220 ft 312 kts 36°
2026-05-06 02:41 42.11790 -70.61639 7930 ft 306 kts 20°
2026-05-06 02:42 42.13788 -70.60776 7641 ft 299 kts
2026-05-06 02:42 42.15827 -70.60219 7358 ft 299 kts
2026-05-06 02:42 42.17859 -70.59655 7068 ft 297 kts
2026-05-06 02:42 42.19879 -70.59092 6795 ft 296 kts
2026-05-06 02:43 42.21893 -70.58533 6505 ft 295 kts
2026-05-06 02:43 42.23895 -70.57974 6220 ft 293 kts
2026-05-06 02:43 42.25891 -70.57413 5935 ft 293 kts
2026-05-06 02:43 42.27884 -70.56857 5652 ft 292 kts
2026-05-06 02:44 42.29873 -70.56353 5373 ft 288 kts 359°
2026-05-06 02:44 42.31829 -70.56486 5113 ft 276 kts 340°
2026-05-06 02:44 42.33593 -70.57350 5008 ft 266 kts 323°
2026-05-06 02:44 42.35064 -70.58790 5028 ft 258 kts 309°
2026-05-06 02:45 42.36351 -70.60483 5023 ft 258 kts 308°
2026-05-06 02:45 42.37638 -70.62176 5023 ft 258 kts 308°
2026-05-06 02:45 42.38926 -70.63867 5011 ft 258 kts 308°
2026-05-06 02:45 42.40214 -70.65559 5010 ft 258 kts 308°
2026-05-06 02:46 42.41436 -70.67164 5006 ft 258 kts 308°
2026-05-06 02:46 42.42726 -70.68857 5000 ft 258 kts 308°
2026-05-06 02:46 42.44013 -70.70550 4996 ft 258 kts 308°
2026-05-06 02:46 42.45301 -70.72245 4999 ft 258 kts 308°
2026-05-06 02:47 42.46562 -70.73904 5000 ft 246 kts 308°
2026-05-06 02:47 42.47756 -70.75467 4989 ft 231 kts 308°
2026-05-06 02:47 42.48892 -70.76958 4992 ft 226 kts 307°
2026-05-06 02:47 42.50017 -70.78448 4993 ft 226 kts 307°
2026-05-06 02:48 42.51224 -70.79837 5002 ft 233 kts 319°
2026-05-06 02:48 42.52738 -70.80737 4956 ft 244 kts 338°
2026-05-06 02:48 42.54461 -70.80950 4851 ft 255 kts 357°
2026-05-06 02:48 42.56214 -70.80376 4730 ft 262 kts 14°
2026-05-06 02:49 42.57895 -70.79542 4580 ft 252 kts 10°
2026-05-06 02:49 42.59550 -70.79386 4410 ft 229 kts 336°
2026-05-06 02:49 42.60856 -70.80353 4242 ft 207 kts 302°
2026-05-06 02:49 42.61588 -70.81967 4096 ft 198 kts 284°
2026-05-06 02:50 42.61884 -70.83752 4011 ft 192 kts 268°
2026-05-06 02:50 42.61762 -70.85509 3997 ft 188 kts 253°
2026-05-06 02:50 42.61243 -70.87158 4001 ft 189 kts 238°
2026-05-06 02:50 42.60395 -70.88493 4000 ft 191 kts 223°
2026-05-06 02:51 42.59235 -70.89453 3999 ft 197 kts 207°
2026-05-06 02:51 42.57953 -70.90082 3996 ft 198 kts 206°
2026-05-06 02:51 42.56659 -70.90711 3899 ft 197 kts 206°
2026-05-06 02:51 42.55362 -70.91342 3681 ft 194 kts 206°
2026-05-06 02:52 42.54114 -70.91950 3445 ft 192 kts 206°
2026-05-06 02:52 42.52867 -70.92557 3196 ft 189 kts 206°
2026-05-06 02:52 42.51634 -70.93157 2956 ft 186 kts 207°
2026-05-06 02:52 42.50984 -70.93474 2823 ft 183 kts 207°
2026-05-06 02:53 42.50006 -70.93953 2642 ft 179 kts 207°
2026-05-06 02:53 42.48559 -70.94655 2342 ft 174 kts 206°
2026-05-06 02:53 42.47456 -70.95188 2127 ft 165 kts 206°
2026-05-06 02:53 42.46434 -70.95682 1921 ft 155 kts 206°
2026-05-06 02:54 42.45446 -70.96161 1721 ft 146 kts 208°
2026-05-06 02:54 42.44531 -70.96605 1524 ft 132 kts 207°
2026-05-06 02:54 42.43709 -70.97004 1361 ft 123 kts 207°
2026-05-06 02:54 42.42907 -70.97395 1210 ft 121 kts 206°
2026-05-06 02:55 42.42113 -70.97783 1036 ft 123 kts 205°
2026-05-06 02:55 42.41288 -70.98184 871 ft 128 kts 203°
2026-05-06 02:55 42.40438 -70.98596 699 ft 135 kts 202°
2026-05-06 02:55 42.39844 -70.98885 587 ft 138 kts 201°
2026-05-06 02:56 42.38944 -70.99320 403 ft 138 kts 201°
2026-05-06 02:56 42.38050 -70.99755 215 ft 137 kts 201°
2026-05-06 02:56 42.37190 -71.00180 44 ft 122 kts 200°
2026-05-06 02:56 42.36492 -71.00518 27 ft 89 kts 200°
2026-05-06 02:57 42.36072 -71.00718 27 ft 40 kts 200°
2026-05-06 02:57 42.35860 -71.00821 28 ft 25 kts 199°
2026-05-06 02:57 42.35812 -71.00934 25 ft 16 kts 281°
2026-05-06 02:57 42.35825 -71.01037 25 ft 0 kts 278°
2026-05-06 02:58 42.35828 -71.01059 25 ft 4 kts 277°
2026-05-06 02:58 42.35832 -71.01106 25 ft 7 kts 277°
2026-05-06 02:58 42.35838 -71.01173 25 ft 9 kts 277°
2026-05-06 02:58 42.35846 -71.01262 25 ft 12 kts 277°
2026-05-06 02:59 42.35848 -71.01281 30 ft 4 kts 277°
2026-05-06 02:59 42.35853 -71.01336 25 ft 9 kts 278°
2026-05-06 02:59 42.35864 -71.01419 30 ft 12 kts 281°
2026-05-06 02:59 42.35897 -71.01525 27 ft 13 kts 332°
2026-05-06 03:00 42.35987 -71.01502 27 ft 15 kts 20°
2026-05-06 03:00 42.36073 -71.01461 28 ft 11 kts 20°
2026-05-06 03:00 42.36153 -71.01422 27 ft 13 kts 20°
2026-05-06 03:00 42.36238 -71.01381 28 ft 13 kts 19°
2026-05-06 03:01 42.36310 -71.01346 27 ft 10 kts 19°
2026-05-06 03:01 42.36364 -71.01377 27 ft 10 kts 299°
2026-05-06 03:01 42.36391 -71.01464 26 ft 11 kts 296°
2026-05-06 03:01 42.36414 -71.01517 22 ft 7 kts 302°
2026-05-06 03:02 42.36418 -71.01526 30 ft 0 kts 302°
2026-05-06 03:02 42.36418 -71.01527 30 ft 1 kts 302°
2026-05-06 03:02 42.36427 -71.01544 31 ft 3 kts 301°
2026-05-06 03:03 42.36441 -71.01577 28 ft 5 kts 301°
2026-05-06 03:03 42.36461 -71.01622 28 ft 6 kts 301°
2026-05-06 03:03 42.36462 -71.01672 26 ft 7 kts 259°
2026-05-06 03:03 42.36465 -71.01718 26 ft 4 kts 284°
2026-05-06 03:04 42.36468 -71.01733 30 ft 1 kts 283°
2026-05-06 03:04 42.36471 -71.01749 28 ft 2 kts 285°
2026-05-06 03:04 42.36474 -71.01762 27 ft 0 kts 285°
2026-05-06 03:04 42.36475 -71.01766 27 ft 0 kts 285°
2026-05-06 03:05 42.36475 -71.01769 27 ft 0 kts 285°